When you browse on this site, cookies collect data to enhance your experience and personalize the content and advertising you see.
Visit our Privacy Policy to learn more. By continuing to use the site, you agree to this use of cookies and data.

Stündliche Wetter Wejle

Heute, 12 Juli, Sonntag

Zeit Temperatur Niederschläge Wind Luftdruck Luftfeuchtigkeit
00:00 +8°C° 0 mm 4 m/S 759 mmHg 93%
01:00 +8°C° 0 mm 4 m/S 759 mmHg 94%
02:00 +8°C° 0 mm 4 m/S 759 mmHg 93%
03:00 +8°C° 0 mm 4 m/S 759 mmHg 93%
04:00 +8°C° 0 mm 4 m/S 759 mmHg 93%
05:00 +9°C° 0 mm 5 m/S 759 mmHg 89%
06:00 +10°C° 0 mm 5 m/S 759 mmHg 85%
07:00 +11°C° 0 mm 6 m/S 760 mmHg 80%
08:00 +13°C° 0.1 mm 6 m/S 760 mmHg 77%
09:00 +14°C° 0.1 mm 7 m/S 760 mmHg 74%
10:00 +15°C° 0.1 mm 7 m/S 760 mmHg 70%
11:00 +15°C° 0.1 mm 7 m/S 761 mmHg 70%
12:00 +16°C° 0.1 mm 7 m/S 761 mmHg 69%
13:00 +16°C° 0.1 mm 7 m/S 761 mmHg 69%
14:00 +16°C° 0 mm 7 m/S 761 mmHg 68%
15:00 +16°C° 0 mm 7 m/S 761 mmHg 68%
16:00 +16°C° 0 mm 8 m/S 760 mmHg 67%
17:00 +16°C° 0 mm 7 m/S 760 mmHg 70%
18:00 +15°C° 0 mm 6 m/S 760 mmHg 73%
19:00 +14°C° 0 mm 6 m/S 760 mmHg 77%
20:00 +13°C° 0 mm 5 m/S 760 mmHg 82%
21:00 +12°C° 0 mm 5 m/S 760 mmHg 87%
22:00 +11°C° 0 mm 4 m/S 760 mmHg 91%
23:00 +11°C° 0 mm 4 m/S 760 mmHg 92%

Morgen, 13 Juli, Montag

Zeit Temperatur Niederschläge Wind Luftdruck Luftfeuchtigkeit
00:00 +10°C° 0 mm 4 m/S 760 mmHg 93%
01:00 +10°C° 0 mm 4 m/S 760 mmHg 94%
02:00 +10°C° 0 mm 4 m/S 759 mmHg 95%
03:00 +8°C° 0 mm 4 m/S 759 mmHg 95%
04:00 +9°C° 0 mm 3 m/S 759 mmHg 96%
05:00 +10°C° 0 mm 4 m/S 759 mmHg 92%
06:00 +12°C° 0 mm 4 m/S 759 mmHg 88%
07:00 +13°C° 0 mm 4 m/S 759 mmHg 85%
08:00 +13°C° 0 mm 4 m/S 759 mmHg 82%
09:00 +14°C° 0 mm 4 m/S 759 mmHg 79%
10:00 +14°C° 0 mm 4 m/S 759 mmHg 76%
11:00 +15°C° 0 mm 4 m/S 759 mmHg 74%
12:00 +15°C° 0 mm 4 m/S 759 mmHg 72%
13:00 +17°C° 0 mm 4 m/S 758 mmHg 70%
14:00 +17°C° 0 mm 4 m/S 758 mmHg 68%
15:00 +18°C° 0 mm 4 m/S 758 mmHg 67%
16:00 +18°C° 0 mm 4 m/S 757 mmHg 66%
17:00 +17°C° 0 mm 4 m/S 757 mmHg 70%
18:00 +17°C° 0 mm 4 m/S 757 mmHg 74%
19:00 +15°C° 0 mm 4 m/S 757 mmHg 78%
20:00 +14°C° 0 mm 3 m/S 756 mmHg 84%
21:00 +13°C° 0 mm 3 m/S 756 mmHg 89%
22:00 +11°C° 0 mm 3 m/S 756 mmHg 95%
23:00 +12°C° 0 mm 3 m/S 755 mmHg 94%

übermorgen, 14 Juli, Dienstag

Zeit Temperatur Niederschläge Wind Luftdruck Luftfeuchtigkeit
00:00 +12°C° 0 mm 3 m/S 755 mmHg 94%
01:00 +12°C° 0 mm 3 m/S 755 mmHg 94%
02:00 +12°C° 0.3 mm 4 m/S 755 mmHg 94%
03:00 +12°C° 0.3 mm 4 m/S 754 mmHg 94%
04:00 +12°C° 0.3 mm 4 m/S 754 mmHg 95%
05:00 +13°C° 0.6 mm 4 m/S 753 mmHg 95%
06:00 +13°C° 0.6 mm 4 m/S 753 mmHg 95%
07:00 +13°C° 0.6 mm 5 m/S 753 mmHg 96%
08:00 +13°C° 0.2 mm 5 m/S 753 mmHg 95%
09:00 +14°C° 0.2 mm 5 m/S 752 mmHg 94%
10:00 +14°C° 0.2 mm 5 m/S 752 mmHg 93%
11:00 +14°C° 0.6 mm 5 m/S 752 mmHg 93%
12:00 +14°C° 0.6 mm 5 m/S 752 mmHg 92%
13:00 +15°C° 0.6 mm 5 m/S 752 mmHg 92%
14:00 +17°C° 0.4 mm 4 m/S 752 mmHg 88%
15:00 +18°C° 0.4 mm 4 m/S 751 mmHg 83%
16:00 +19°C° 0.4 mm 4 m/S 751 mmHg 79%
17:00 +18°C° 0.1 mm 3 m/S 751 mmHg 80%
18:00 +18°C° 0.1 mm 3 m/S 751 mmHg 81%
19:00 +17°C° 0.1 mm 3 m/S 751 mmHg 83%
20:00 +16°C° 0 mm 3 m/S 751 mmHg 86%
21:00 +14°C° 0 mm 2 m/S 751 mmHg 90%
22:00 +13°C° 0 mm 2 m/S 751 mmHg 94%
23:00 +13°C° 0 mm 2 m/S 751 mmHg 94%

15 Juli, Mittwoch

Zeit Temperatur Niederschläge Wind Luftdruck Luftfeuchtigkeit
00:00 +13°C° 0 mm 2 m/S 750 mmHg 95%
01:00 +12°C° 0 mm 1 m/S 750 mmHg 95%
02:00 +12°C° 0 mm 1 m/S 750 mmHg 95%
03:00 +12°C° 0 mm 1 m/S 750 mmHg 96%
04:00 +11°C° 0 mm 0 m/S 750 mmHg 96%
05:00 +13°C° 0 mm 1 m/S 750 mmHg 94%
06:00 +13°C° 0 mm 1 m/S 750 mmHg 93%
07:00 +14°C° 0 mm 2 m/S 750 mmHg 91%
08:00 +15°C° 0.2 mm 2 m/S 750 mmHg 89%
09:00 +15°C° 0.2 mm 2 m/S 750 mmHg 86%
10:00 +16°C° 0.2 mm 3 m/S 750 mmHg 83%
11:00 +17°C° 0.4 mm 3 m/S 750 mmHg 80%
12:00 +17°C° 0.4 mm 3 m/S 750 mmHg 77%
13:00 +18°C° 0.4 mm 4 m/S 750 mmHg 74%
14:00 +18°C° 0.6 mm 4 m/S 750 mmHg 75%
15:00 +17°C° 0.6 mm 5 m/S 750 mmHg 76%
16:00 +17°C° 0.6 mm 5 m/S 750 mmHg 77%
17:00 +16°C° 0.4 mm 5 m/S 750 mmHg 80%
18:00 +15°C° 0.4 mm 5 m/S 750 mmHg 83%
19:00 +15°C° 0.4 mm 5 m/S 751 mmHg 85%
20:00 +13°C° 0.1 mm 5 m/S 751 mmHg 89%
21:00 +12°C° 0.1 mm 4 m/S 751 mmHg 92%
22:00 +11°C° 0.1 mm 4 m/S 751 mmHg 96%
23:00 +11°C° 0 mm 4 m/S 751 mmHg 96%

16 Juli, Donnerstag

Zeit Temperatur Niederschläge Wind Luftdruck Luftfeuchtigkeit
00:00 +10°C° 0 mm 3 m/S 751 mmHg 96%
01:00 +10°C° 0 mm 3 m/S 751 mmHg 97%
02:00 +10°C° 0 mm 3 m/S 751 mmHg 97%
03:00 +10°C° 0 mm 3 m/S 751 mmHg 97%
04:00 +10°C° 0 mm 3 m/S 751 mmHg 97%
05:00 +11°C° 0 mm 3 m/S 751 mmHg 96%
06:00 +12°C° 0 mm 3 m/S 751 mmHg 96%
07:00 +13°C° 0 mm 3 m/S 751 mmHg 95%
08:00 +14°C° 0 mm 3 m/S 752 mmHg 91%
09:00 +16°C° 0 mm 3 m/S 752 mmHg 87%
10:00 +17°C° 0 mm 3 m/S 752 mmHg 83%
11:00 +18°C° 0.2 mm 3 m/S 752 mmHg 81%
12:00 +19°C° 0.2 mm 3 m/S 752 mmHg 79%
13:00 +20°C° 0.2 mm 4 m/S 752 mmHg 77%
14:00 +20°C° 0.3 mm 4 m/S 752 mmHg 77%
15:00 +20°C° 0.3 mm 4 m/S 752 mmHg 77%
16:00 +20°C° 0.3 mm 4 m/S 752 mmHg 77%
17:00 +20°C° 0.1 mm 4 m/S 752 mmHg 80%
18:00 +19°C° 0.1 mm 4 m/S 753 mmHg 83%
19:00 +18°C° 0.1 mm 3 m/S 753 mmHg 85%
20:00 +17°C° 0 mm 3 m/S 753 mmHg 88%
21:00 +16°C° 0 mm 2 m/S 753 mmHg 91%
22:00 +14°C° 0 mm 2 m/S 754 mmHg 94%
23:00 +14°C° 0 mm 2 m/S 754 mmHg 94%

17 Juli, Freitag

Zeit Temperatur Niederschläge Wind Luftdruck Luftfeuchtigkeit
00:00 +14°C° 0 mm 2 m/S 754 mmHg 95%
01:00 +13°C° 0 mm 2 m/S 754 mmHg 95%
02:00 +13°C° 0 mm 2 m/S 754 mmHg 95%
03:00 +13°C° 0 mm 2 m/S 754 mmHg 96%
04:00 +13°C° 0 mm 2 m/S 754 mmHg 96%
05:00 +13°C° 0 mm 3 m/S 754 mmHg 94%
06:00 +14°C° 0 mm 3 m/S 754 mmHg 92%
07:00 +14°C° 0 mm 3 m/S 755 mmHg 91%
08:00 +16°C° 0 mm 3 m/S 755 mmHg 85%
09:00 +18°C° 0 mm 3 m/S 755 mmHg 80%
10:00 +19°C° 0 mm 3 m/S 755 mmHg 75%
11:00 +19°C° 0 mm 4 m/S 755 mmHg 73%
12:00 +19°C° 0 mm 4 m/S 755 mmHg 70%
13:00 +20°C° 0 mm 4 m/S 756 mmHg 68%
14:00 +20°C° 0 mm 4 m/S 755 mmHg 67%
15:00 +20°C° 0 mm 5 m/S 755 mmHg 66%
16:00 +20°C° 0 mm 5 m/S 755 mmHg 65%
17:00 +19°C° 0 mm 5 m/S 755 mmHg 70%
18:00 +18°C° 0 mm 4 m/S 755 mmHg 75%
19:00 +17°C° 0 mm 4 m/S 755 mmHg 80%
20:00 +17°C° 0 mm 4 m/S 755 mmHg 85%
21:00 +16°C° 0 mm 3 m/S 756 mmHg 89%
22:00 +14°C° 0 mm 3 m/S 756 mmHg 93%
23:00 +14°C° 0 mm 3 m/S 756 mmHg 93%
Mehr zeigen